Somerset, KY

6:37 AM EDT on April 25, 2017 (GMT -0400)
Somerset-Pulaski County-Wilson

Weather History for KSME - April, 2014

Change the Weather History Date:

Sunday, April 13, 2014

  Actual Average Record
Temperature  
Mean Temperature 72 °F -  
Max Temperature 82 °F 67 °F 82 °F (2006)
Min Temperature 62 °F 44 °F 28 °F (2007)
Cooling Degree Days 7    
Growing Degree Days 22 (Base 50)    
Moisture  
Dew Point 46 °F    
Average Humidity 40    
Maximum Humidity 55    
Minimum Humidity 23    
Precipitation  
Precipitation 0.00 in - - ()
Sea Level Pressure  
Sea Level Pressure 29.99 in    
Wind  
Wind Speed 8 mph (SSW)    
Max Wind Speed 18 mph    
Max Gust Speed 26 mph    
Visibility 10 miles    
Events      
Averages and records for this station are not official NWS values.
T = Trace of Precipitation, MM = Missing Value Source: NWS Daily Summary

Daily Weather History Graph

Daily Weather History Graph

Search for Another Location

Airport or City:

Trip Planner

Search our weather history database for the weather conditions in past years. The results will help you decide how hot, cold, wet, or windy it might be!

Date:

Astronomy

Apr. 13, 2014 Rise Set
Actual Time 7:06 AM EDT 8:11 PM EDT
Civil Twilight 6:40 AM EDT 8:38 PM EDT
Nautical Twilight 6:08 AM EDT 9:10 PM EDT
Astronomical Twilight 5:35 AM EDT 9:43 PM EDT
Moon 6:50 PM EDT (4/13) 6:02 AM EDT (4/13)
Length of Visible Light 13h 58m
Length of Day
13h 04m
Waxing Gibbous, 97% of the Moon is Illuminated
Apr 13
Waxing Gibbous
Apr 15
Full
Apr 22
Last Quarter
Apr 29
New
May 6
First Quarter

Hourly Weather History & Observations

Time (EDT) Temp. Dew Point Humidity Pressure Visibility Wind Dir Wind Speed Gust Speed Precip Events Conditions
12:15 AM 69.8 °F 46.4 °F 43% 30.01 in 10.0 mi SSW 9.2 mph - N/A   Clear
12:35 AM 68.0 °F 46.4 °F 46% 30.02 in 10.0 mi SSW 5.8 mph - N/A   Clear
12:55 AM 68.0 °F 46.4 °F 46% 30.02 in 10.0 mi SSW 3.5 mph - N/A   Clear
1:15 AM 68.0 °F 46.4 °F 46% 30.01 in 10.0 mi SSW 3.5 mph - N/A   Clear
1:35 AM 66.2 °F 46.4 °F 49% 30.01 in 10.0 mi SSW 3.5 mph - N/A   Clear
1:55 AM 64.4 °F 46.4 °F 52% 30.01 in 10.0 mi Calm Calm - N/A   Clear
2:15 AM 64.4 °F 46.4 °F 52% 30.01 in 10.0 mi South 3.5 mph - N/A   Clear
2:35 AM 64.4 °F 46.4 °F 52% 30.01 in 10.0 mi SSW 3.5 mph - N/A   Clear
2:55 AM 64.4 °F 46.4 °F 52% 30.02 in 10.0 mi SSW 3.5 mph - N/A   Clear
3:15 AM 64.4 °F 46.4 °F 52% 30.02 in 10.0 mi SW 6.9 mph - N/A   Clear
3:35 AM 66.2 °F 46.4 °F 49% 30.02 in 10.0 mi SSW 6.9 mph - N/A   Clear
3:55 AM 66.2 °F 46.4 °F 49% 30.02 in 10.0 mi SW 6.9 mph - N/A   Clear
4:15 AM 66.2 °F 46.4 °F 49% 30.03 in 10.0 mi SW 6.9 mph - N/A   Clear
4:35 AM 66.2 °F 46.4 °F 49% 30.03 in 10.0 mi SW 4.6 mph - N/A   Clear
4:55 AM 64.4 °F 46.4 °F 52% 30.03 in 10.0 mi SSW 5.8 mph - N/A   Clear
5:15 AM 64.4 °F 46.4 °F 52% 30.03 in 10.0 mi South 3.5 mph - N/A   Clear
5:35 AM 64.4 °F 46.4 °F 52% 30.03 in 10.0 mi South 4.6 mph - N/A   Clear
5:55 AM 62.6 °F 46.4 °F 55% 30.04 in 10.0 mi South 5.8 mph - N/A   Clear
6:15 AM 64.4 °F 46.4 °F 52% 30.04 in 10.0 mi South 6.9 mph - N/A   Clear
6:35 AM 64.4 °F 46.4 °F 52% 30.04 in 10.0 mi South 6.9 mph - N/A   Clear
6:55 AM 64.4 °F 46.4 °F 52% 30.05 in 10.0 mi South 5.8 mph - N/A   Clear
7:15 AM 62.6 °F 46.4 °F 55% 30.05 in 10.0 mi South 5.8 mph - N/A   Clear
7:35 AM 62.6 °F 46.4 °F 55% 30.07 in 10.0 mi South 5.8 mph - N/A   Clear
7:55 AM 62.6 °F 46.4 °F 55% 30.07 in 10.0 mi South 6.9 mph - N/A   Clear
8:15 AM 62.6 °F 46.4 °F 55% 30.07 in 10.0 mi South 6.9 mph - N/A   Clear
8:35 AM 64.4 °F 46.4 °F 52% 30.08 in 10.0 mi South 6.9 mph - N/A   Clear
8:55 AM 66.2 °F 48.2 °F 52% 30.08 in 10.0 mi South 5.8 mph - N/A   Clear
9:15 AM 66.2 °F 48.2 °F 52% 30.08 in 10.0 mi SSW 6.9 mph - N/A   Clear
9:35 AM 68.0 °F 48.2 °F 49% 30.09 in 10.0 mi SSW 9.2 mph - N/A   Clear
9:55 AM 69.8 °F 48.2 °F 46% 30.09 in 10.0 mi SW 8.1 mph - N/A   Clear
10:15 AM 69.8 °F 48.2 °F 46% 30.09 in 10.0 mi SW 6.9 mph - N/A   Clear
10:55 AM 73.4 °F 48.2 °F 41% 30.08 in 10.0 mi SW 11.5 mph 21.9 mph N/A   Clear
11:15 AM 73.4 °F 50.0 °F 44% 30.07 in 10.0 mi SW 13.8 mph 21.9 mph N/A   Clear
11:35 AM 73.4 °F 44.6 °F 36% 30.07 in 10.0 mi SW 17.3 mph 26.5 mph N/A   Clear
11:55 AM 75.2 °F 44.6 °F 34% 30.05 in 10.0 mi SW 11.5 mph 20.7 mph N/A   Clear
12:15 PM 77.0 °F 44.6 °F 32% 30.05 in 10.0 mi SW 16.1 mph 24.2 mph N/A   Clear
12:30 PM 77.0 °F 44.6 °F 32% 30.04 in 10.0 mi SW 12.7 mph 24.2 mph N/A   Clear
12:55 PM 78.8 °F 42.8 °F 28% 30.02 in 10.0 mi SSW 15.0 mph 21.9 mph N/A   Clear
1:15 PM 78.8 °F 42.8 °F 28% 30.01 in 10.0 mi SW 15.0 mph 21.9 mph N/A   Clear
1:35 PM 78.8 °F 44.6 °F 30% 30.01 in 10.0 mi South 13.8 mph 21.9 mph N/A   Clear
1:55 PM 80.6 °F 42.8 °F 26% 30.00 in 10.0 mi SSW 13.8 mph 24.2 mph N/A   Clear
2:15 PM 80.6 °F 42.8 °F 26% 29.98 in 10.0 mi SW 12.7 mph 18.4 mph N/A   Clear
2:35 PM 80.6 °F 42.8 °F 26% 29.97 in 10.0 mi South 13.8 mph 18.4 mph N/A   Clear
2:50 PM 80.6 °F 42.8 °F 26% 29.97 in 10.0 mi SW 12.7 mph 23.0 mph N/A   Clear
3:15 PM 80.6 °F 41.0 °F 24% 29.96 in 10.0 mi SSW 11.5 mph 24.2 mph N/A   Clear
3:35 PM 82.4 °F 42.8 °F 25% 29.95 in 10.0 mi SSW 13.8 mph 20.7 mph N/A   Clear
3:55 PM 82.4 °F 42.8 °F 25% 29.95 in 10.0 mi SSW 11.5 mph 24.2 mph N/A   Clear
4:15 PM 82.4 °F 41.0 °F 23% 29.94 in 10.0 mi SSW 17.3 mph 26.5 mph N/A   Clear
4:35 PM 82.4 °F 41.0 °F 23% 29.93 in 10.0 mi SSW 11.5 mph 18.4 mph N/A   Clear
4:55 PM 82.4 °F 42.8 °F 25% 29.93 in 10.0 mi SW 15.0 mph 26.5 mph N/A   Clear
5:35 PM 80.6 °F 44.6 °F 28% 29.91 in 10.0 mi South 8.1 mph 23.0 mph N/A   Scattered Clouds
5:55 PM 80.6 °F 44.6 °F 28% 29.91 in 10.0 mi SSW 10.4 mph 19.6 mph N/A   Clear
6:15 PM 78.8 °F 44.6 °F 30% 29.91 in 10.0 mi South 11.5 mph 20.7 mph N/A   Clear
6:35 PM 78.8 °F 44.6 °F 30% 29.92 in 10.0 mi South 8.1 mph 20.7 mph N/A   Clear
6:55 PM 78.8 °F 44.6 °F 30% 29.92 in 10.0 mi South 15.0 mph 23.0 mph N/A   Clear
7:15 PM 77.0 °F 44.6 °F 32% 29.92 in 10.0 mi SSW 18.4 mph 26.5 mph N/A   Clear
7:35 PM 77.0 °F 44.6 °F 32% 29.92 in 10.0 mi South 13.8 mph 18.4 mph N/A   Clear
7:55 PM 77.0 °F 44.6 °F 32% 29.92 in 10.0 mi SSW 13.8 mph 23.0 mph N/A   Clear
8:15 PM 75.2 °F 44.6 °F 34% 29.91 in 10.0 mi SSW 17.3 mph 23.0 mph N/A   Clear
8:35 PM 73.4 °F 46.4 °F 38% 29.91 in 10.0 mi South 8.1 mph - N/A   Clear
8:55 PM 73.4 °F 46.4 °F 38% 29.90 in 10.0 mi South 9.2 mph - N/A   Clear
9:15 PM 73.4 °F 48.2 °F 41% 29.90 in 10.0 mi South 5.8 mph - N/A   Clear
9:35 PM 73.4 °F 46.4 °F 38% 29.90 in 10.0 mi South 9.2 mph - N/A   Clear
9:55 PM 73.4 °F 46.4 °F 38% 29.89 in 10.0 mi South 8.1 mph 11.5 mph N/A   Clear
10:15 PM 73.4 °F 46.4 °F 38% 29.88 in 10.0 mi South 8.1 mph - N/A   Clear
10:35 PM 71.6 °F 46.4 °F 41% 29.88 in 10.0 mi SSW 9.2 mph 17.3 mph N/A   Clear
10:55 PM 73.4 °F 46.4 °F 38% 29.88 in 10.0 mi SSW 11.5 mph 19.6 mph N/A   Clear
11:15 PM 73.4 °F 46.4 °F 38% 29.88 in 10.0 mi SSW 12.7 mph 20.7 mph N/A   Clear
11:35 PM 73.4 °F 46.4 °F 38% 29.87 in 10.0 mi SSW 9.2 mph 19.6 mph N/A   Clear
11:55 PM 73.4 °F 48.2 °F 41% 29.87 in 10.0 mi SSW 12.7 mph 18.4 mph N/A   Clear